Regional Weather Roundup
Issued by NWS Pendleton, OR

Home | Current Version | Previous Version | Text Only | Print | Product List | Glossary On
Versions: 1 2 3 4 5 6 7 8 9 10 11 12 13 14 15 16 17 18 19 20 21 22 23 24 25 26 27 28 29 30 31 32 33 34 35 36 37 38 39 40 41 42 43 44 45 46 47 48 49 50
000
ASUS46 KPDT 011925
RWRPDT
PENDLETON REGIONAL WEATHER ROUNDUP
NATIONAL WEATHER SERVICE PENDLETON OREGON
1100 AM PST SUN FEB 1 2015

NOTE: FAIR INDICATES FEW OR NO CLOUDS BELOW 12,000 FEET WITH NO
SIGNIFICANT WEATHER AND/OR OBSTRUCTIONS TO VISIBILITY.

# INDICATES UNOFFICIAL STATION AND DATA

WAZ520-012010-
EAST SLOPES OF WASHINGTON CASCADES

CITY            SKY/WX      TMP DP  RH  WIND    PRES   REMARKS
#BUMPING DAM    N/A         29  N/A N/A S7      N/A
#CLE ELUM HS    N/A         33  30  89  CALM    30.07S
#CLE ELUM LAKE  N/A         30  29  96  CALM    30.18S
#CLIFFDEL 2NW   N/A         31  28  88  N1      N/A
#GLENWOOD       N/A         33  32  96  CALM    30.21F
#MANASTASH CYN  N/A         32  28  85  CALM    30.04F
#NELSON         N/A         33  31  92  CALM    30.19F
#NELSON 3SW     N/A         29  28  96  CALM    30.40S
#NILE           N/A         33  30  89  CALM    29.42F
#RONALD 2NW     N/A         32  23  69  CALM    29.93F
#SNOWDEN        N/A         31  29  92  CALM    N/A
#TEANAWAY 4NE   N/A         33  32  96  CALM    N/A
#TROUT LAKE 1NE N/A         32  31  96  CALM    30.21F
$$

WAZ521-012010-
SIMCOE HIGHLANDS

CITY            SKY/WX      TMP DP  RH  WIND    PRES   REMARKS
#BICKLETON HS   N/A         30  30  100 CALM    N/A
#CENTERVILLE 4W N/A         35  33  92  SE1     29.88F
#CENTERVILLE 1SWN/A         33  30  89  CALM    30.19S
#GOLDENDALE     N/A         33  32  96  S7      N/A
#GOLDENDALE 1NE N/A         34  31  89  CALM    N/A
#GOLDENDALE 1S  N/A         31  31  100 CALM    30.11S
#GOLDENDALE 5WNWN/A         34  32  92  CALM    30.19F
#GOODNOE HILLS  N/A         36  31  82  W5      N/A
#LYLE 6NE       N/A         34  33  96  CALM    30.18F
$$

WAZ026-012010-
KITTITAS VALLEY

CITY            SKY/WX      TMP DP  RH  WIND    PRES   REMARKS
ELLENSBURG AP   CLOUDY      38  30  73  SE5     30.12F
#ELLENSBURG CWU N/A         35  32  89  E3      30.13F
#ELLENSBURG 3NE N/A         34  32  92  E1      30.11F
#ELLENSBURG 1E  N/A         35  30  82  CALM    N/A
#KITTITAS 4N    N/A         36  33  89  CALM    28.41F
#KITTITAS 3S    N/A         35  32  89  CALM    30.16F
#THORP 6N       N/A         31  31  100 E1      30.20F
$$

WAZ027-012010-
YAKIMA VALLEY

CITY            SKY/WX      TMP DP  RH  WIND    PRES   REMARKS
SUNNYSIDE AP    LGT DRIZZLE 36  32  85  CALM    30.17F
YAKIMA AIRPORT  CLOUDY      38  32  79  CALM    30.16F
YAKIMA-VAGABOND LGT RAIN    36  32  85  W3      30.14F
#DONALD 2NE     N/A         37  32  82  N1      29.00F
#MABTON         N/A         40  37  89  SE6     30.18F
#MOXEE 2E       N/A         37  30  75  CALM    30.10F
#NACHES 2SW     N/A         34  33  96  CALM    30.12S
#OUTLOOK DOT    N/A         N/A N/A N/A S2      N/A
#SELAH 8E       N/A         34  32  92  CALM    N/A
#TERRACE HTS    N/A         36  33  89  S1      30.17F
#TOPPENISH      N/A         37  34  89  CALM    30.11F
#WAPATO 4NE     N/A         37  32  82  N1      29.00F
#WEST VALLEY    N/A         36  33  89  CALM    30.18F
#W YAKIMA       N/A         35  33  92  CALM    30.18F
#WHITE SWAN 5E  N/A         37  35  92  E1      30.20S
#WILEY CITY 3W  N/A         35  29  78  CALM    30.17S
$$

WAZ028-012010-
LOWER COLUMBIA BASIN...WASHINGTON

CITY            SKY/WX      TMP DP  RH  WIND    PRES   REMARKS
HANFORD         CLOUDY      39  32  76  NW5     30.16F
PASCO           CLOUDY      40  34  79  SW7     30.20F
PROSSER AWOS    N/A         39  36  89  E1      30.21F
#BENTON CITY    N/A         38  33  82  SW7     30.11F
#CONNELL 5N     N/A         36  33  89  SW2     30.19F
#CONNELL 5NW    N/A         36  33  89  W5      30.16S
#KAHLOTUS       N/A         34  32  92  W9      30.20S
#KENNEWICK 3S   N/A         38  35  89  CALM    30.22S
#PATERSON       N/A         37  35  92  SW3     30.21S
#PROSSER        N/A         38  32  79  S2      30.20F
#SAGEMOOR 2W    N/A         39  35  85  CALM    30.05F
#TOUCHET 2S     N/A         39  35  85  CALM    30.19F
#WEST PASCO     N/A         41  36  82  CALM    30.16F
$$

WAZ029-012010-
FOOTHILLS OF THE BLUES...WASHINGTON

CITY            SKY/WX      TMP DP  RH  WIND    PRES   REMARKS
WALLA WALLA AP  CLOUDY      37  31  79  W3      30.17S
#DAYTON SCHOOL  N/A         34  28  78  W1      30.15S
#LOWDEN 2SE     N/A         39  35  85  CALM    30.16F
#PLEASANT VIEW 1N/A         32  31  96  S7      30.25F
#PRESCOTT       N/A         37  34  89  CALM    30.19F
#SUDBURY        N/A         41  N/A N/A CALM    N/A
#WHITMAN COLLEGEN/A         37  33  85  CALM    30.26F
#WAITSBURG 5S   N/A         33  32  96  SW6     30.31F
#WAITSBURG 8N   N/A         33  28  82  S7      30.00S
#WALLA WALLA 5E N/A         37  35  92  W5      N/A
#WALLA WALLA U  N/A         38  34  85  CALM    30.21F
#WHITMAN MISSIONN/A         38  35  89  CALM    30.23S
$$

WAZ030-012010-
BLUE MOUNTAINS...WASHINGTON

CITY            SKY/WX      TMP DP  RH  WIND    PRES   REMARKS
#DIXIE 5SE      N/A         29  28  96  CALM    30.02S
$$

ORZ009-041-WAZ024-012010-
COLUMBIA RIVER GORGE

CITY            SKY/WX      TMP DP  RH  WIND    PRES   REMARKS
THE DALLES AP   CLOUDY      39  35  85  CALM    30.21F
#ARLINGTON AIRPON/A         36  35  96  W1      30.02S
#ARLINGTON HS   N/A         39  35  85  CALM    30.16F
#CELILO DOT     N/A         39  34  82  CALM    N/A
#LYLE           N/A         40  38  92  S1      30.23F
#MOSIER 1S      N/A         37  34  89  CALM    30.21S
#MURDOCK        N/A         41  38  89  W1      30.23F
#RUFUS DOT      N/A         39  34  82  NW3     N/A

$$

ORZ510-012010-
NORTH CENTRAL OREGON

CITY            SKY/WX      TMP DP  RH  WIND    PRES   REMARKS
#CHENOWITH 1W   N/A         33  33  100 CALM    N/A
#COW CYN RST AREN/A         32  32  100 W7      N/A
#DUFUR 9E       N/A         31  31  100 CALM    30.27F
#GRASS VALLEY 1SN/A         32  31  96  CALM    30.24F
#KENT DOT       N/A         32  28  85  CALM    N/A
#MAUPIN SCHOOL  N/A         38  34  85  CALM    30.18S
#MORO SCHOOL    N/A         34  34  100 W1      30.15S
#SHANIKO 5WSW   N/A         31  27  85  S3      N/A
#SHANIKO 4NW    N/A         31  31  100 CALM    30.08R
#TYGH VALLEY 2NEN/A         37  35  92  CALM    30.21S
#WAPANITIA AIRPON/A         35  34  96  CALM    30.22S
#WASCO DOT      N/A         36  33  89  CALM    N/A
#WASCO AIRPORT  N/A         35  32  89  NW1     N/A
#WASCO 5NE      N/A         35  33  92  CALM    30.22S
$$

ORZ511-012010-
CENTRAL OREGON

CITY            SKY/WX      TMP DP  RH  WIND    PRES   REMARKS
BEND AIRPORT    CLOUDY      45  37  73  SW18G24 30.10F WCI 37
PRINEVILLE AP   CLOUDY      34  34  100 NE5     30.12F
REDMOND AIRPORT CLOUDY      34  32  92  NE8     30.11F
#BEND 1SW       N/A         43  36  76  W1      N/A
#BEND-AWBREY    N/A         45  38  76  S3      30.19F
#BEND-KIM LN    N/A         43  38  82  SW6     30.08S
#CROOKED RVR RANN/A         36  34  92  S5      30.20F
#CULVER         N/A         36  34  92  S3      30.07F
#LAKE BILLY CHINN/A         37  24  59  SE7     30.18F
#POWELL BUTTE 3EN/A         32  32  100 E5      N/A
#POWELL BUTTE   N/A         39  36  89  CALM    29.72F
#PRINEVILLE 3N  N/A         35  33  92  E1      30.16F
#WARM SPRINGS   N/A         38  35  89  CALM    30.13S

$$


ORZ509-012010-
EAST SLOPES OF OREGON CASCADES

CITY            SKY/WX      TMP DP  RH  WIND    PRES   REMARKS
#BLUE BOX PASS  N/A         37  -13 11  CALM    N/A
#CAMP SHERMAN   N/A         37  34  89  CALM    30.20F
#LA PINE DOT    N/A         40  29  64  SE2     N/A
#LA PINE 4NW    N/A         39  35  85  CALM    30.27S
#LAVA BUTTE DOT N/A         42  29  60  SW1     N/A
#MT BACHELOR-MIDN/A         31  30  96  E24G35  N/A    WCI 18
#SISTERS AIRPOR N/A         34  34  100 SE1     30.17S
#SISTERS ODOT   N/A         34  N/A N/A CALM    N/A
#SISTERS 1NW    N/A         34  31  89  N8      N/A
#SISTERS 3N     N/A         36  32  85  E2      30.10F
#SUNRIVER       N/A         41  37  86  S2      30.10S
#TUMALO 3W      N/A         32  31  96  N1      30.09S
#WANOGA BUTTE D N/A         33  32  96  SW2     N/A

$$

ORZ044-012010-
LOWER COLUMBIA BASIN...OREGON

CITY            SKY/WX      TMP DP  RH  WIND    PRES   REMARKS
HERMISTON       LGT RAIN    37  33  85  W3      30.19F FOG
#BOARDMAN SCHOOLN/A         39  34  82  W1      30.22F
#BOARDMAN 8SW   N/A         37  36  96  W5      30.22S
#ECHO 8SW       N/A         38  36  92  CALM    30.17S
#IONE SCHOOL    N/A         35  24  64  CALM    30.17S
#IRRIGON 4NW    N/A         39  39  100 SW6     N/A
#UMATILLA SCHOOLN/A         36  36  100 NW2     30.24F
#UMATILLA       N/A         39  34  82  CALM    30.18F
$$

ORZ507-012010-
NORTHERN FOOTHILLS OF THE BLUES

CITY            SKY/WX      TMP DP  RH  WIND    PRES   REMARKS
PENDLETON AIRPT LGT RAIN    35  32  89  CALM    30.16R FOG
#ADAMS 3WNW     N/A         34  32  92  W1      30.22S
#ATHENA         N/A         34  33  96  W1      30.24S
#CAYUSE         N/A         34  32  92  CALM    30.22R
#HELIX SCHOOL   N/A         34  32  92  W2      30.21F
#HELIX 3N       N/A         33  32  96  SW1     30.10S
#HOLDMAN 5SE    N/A         35  33  92  CALM    30.16R
#HOLDMAN 6E     N/A         33  32  96  CALM    30.02S
#M-F FERNDALE   N/A         38  33  82  CALM    30.17S
#M-F GROVE ELEM N/A         37  31  79  CALM    30.15S
#M-FREEWATER 5SEN/A         36  33  89  CALM    30.15F
#PENDLETON DNTN N/A         37  32  82  CALM    28.97S
#PDT AQUATIC CTRN/A         38  34  85  CALM    30.16S
#PENDLETON 5NE  N/A         35  34  96  CALM    30.12S
#PDT SUNRIDGE   N/A         36  33  89  CALM    30.19R
#PENDLETON 7NW  N/A         36  32  85  CALM    N/A
#TUTUILLA       N/A         35  33  92  CALM    30.20R
#UMAPINE 2E     N/A         38  35  89  CALM    30.16S
#WESTON SCHOOL  N/A         33  30  89  CALM    30.13S

$$

ORZ508-012010-
SOUTHERN FOOTHILLS OF THE BLUES

CITY            SKY/WX      TMP DP  RH  WIND    PRES   REMARKS
LEXINGTON       CLOUDY      36  36  100 CALM    30.17F FOG
#AJAX           N/A         32  27  82  CALM    30.06R
#CONDON SCHOOL  N/A         32  32  100 CALM    30.05F
#CONDON 5W      N/A         31  30  96  CALM    30.05F
#FOSSIL SCHOOL  N/A         37  35  92  CALM    30.06F
#HEPPNER EOC    N/A         33  32  96  CALM    30.17S
#HEPPNER 4NE    N/A         31  30  96  CALM    30.21F
#LEXINGTON 2SE  N/A         36  33  89  CALM    30.11F
#MIKKALO        N/A         34  34  100 NE1     30.15R
#OLEX 4N        N/A         35  34  96  CALM    30.17S
#RUGGS 5NE      N/A         33  27  78  CALM    30.27R
#RUGGS 2SW      N/A         31  30  96  CALM    30.23F

$$

ORZ502-503-012010-
BLUE MOUNTAINS

CITY            SKY/WX      TMP DP  RH  WIND    PRES   REMARKS
MEACHAM         LGT RAIN    35  33  92  CALM    30.07S
#BATTLE MTN DOT N/A         33  32  96  S6      N/A
#HARDMAN 10S    N/A         33  31  92  CALM    30.29F
#HEPPNER 15SE   N/A         37  35  92  N1      29.98R
#LADD CYN SMT   N/A         34  26  72  SE18    N/A    WCI 23
#LADD CREEK ODOTN/A         37  30  75  S7      N/A
#LONG CREEK HS  N/A         34  34  100 CALM    30.07R
#N POWDER DOT   N/A         35  30  82  CALM    N/A
#PIKES PEAK     N/A         29  27  92  CALM    27.99S
#TOLLGATE       N/A         32  31  96  S2      29.96F
#TROY SCHOOL    N/A         39  33  79  CALM    30.03F
#UKIAH          N/A         34  32  92  CALM    30.26R
#WESTON 4E      N/A         32  31  96  CALM    30.17S
$$

ORZ505-012010-
JOHN DAY BASIN

CITY            SKY/WX      TMP DP  RH  WIND    PRES   REMARKS
JOHN DAY        CLOUDY      41  32  70  NW6     30.11S
#JOHN DAY KJDY  N/A         41  40  96  CALM    30.39R
#DAYVILLE SCHOOLN/A         38  33  82  CALM    30.12S
#MITCHELL       N/A         37  37  100 CALM    30.22F
#MONUMENT HS    N/A         37  32  82  CALM    30.16R
#MT. VERNON 5SE N/A         40  33  76  CALM    30.06R
#WINLOCK        N/A         36  34  92  NW3     30.18F
$$

ORZ506-012010-
OCHOCO AND JOHN DAY HIGHLANDS

CITY            SKY/WX      TMP DP  RH  WIND    PRES   REMARKS
#BUCK CREEK DOT N/A         39  39  100 E5      N/A
#HORSE RIDGE DO N/A         42  30  62  E6      N/A
#KEYES SMT DOT  N/A         37  32  82  E3      N/A
#PAULINA SCHOOL N/A         45  34  65  CALM    30.09S
#PINE MTN OBS   N/A         39  30  70  S7      N/A
#PRAIRIE CITY   N/A         38  31  76  CALM    30.22F
#SENECA         N/A         35  N/A N/A CALM    N/A
#SENECA 9NW     N/A         35  32  89  CALM    30.20S
$$

ORZ049-012010-
GRANDE RONDE VALLEY

CITY            SKY/WX      TMP DP  RH  WIND    PRES   REMARKS
LA GRANDE       MOCLDY      39  27  62  S13     30.11F WCI 31
#COVE           N/A         36  30  79  SE3     30.03S
#COVE SCHOOL    N/A         38  35  89  CALM    30.08F
#COVE 6NW       N/A         34  32  92  CALM    30.26F
#ELGIN 3N       N/A         35  27  72  S7      29.91S
#ELGIN 1E       N/A         35  31  85  W1      N/A
#IMBLER SCHOOL  N/A         35  31  85  S3      30.06F
#ISLAND CITY 4N N/A         40  39  96  CALM    30.14S
#LADD CYN DOT   N/A         38  29  70  S13     N/A    WCI 30
#UNION 1S       N/A         38  32  79  S9      30.11F
$$

ORZ050-012010-
WALLOWA COUNTY

CITY            SKY/WX      TMP DP  RH  WIND    PRES   REMARKS
#ENTERPRISE AP  N/A         35  29  78  CALM    30.01S
#ENTERPRISE HS  N/A         36  31  82  CALM    30.08S
#IMNAHA SCHOOL  N/A         38  32  79  S1      30.11F
#IMNAHA 10S     N/A         35  31  85  NE1     30.06F
#JOSEPH 3N      N/A         34  27  75  NW2     30.08F
#JOSEPH 3W      N/A         36  20  52  CALM    29.88S
#LOSTINE        N/A         34  29  82  CALM    29.99S
#MT HOWARD 8000 N/A         33  27  78  W8      29.99F
#PROMISE 1S     N/A         36  32  85  NE7     30.28F
#SHEEP RDG 7000 N/A         32  27  82  CALM    30.09F
#WALLOWA SCHOOL N/A         33  30  89  CALM    31.18F



$$



USA.gov is the U.S. government's official web portal to all federal, state and local government web resources and services.